Location: East Irvine
(33.6759°N, 117.7598°W)
Time: 00:24:34
(UTC+00:00)

ATLAS 5 CENTAUR R/B - Pass Details

Date: 15 November 2025
Orbit: 373 x 1090 km, 63.3° (Epoch: 07 December)

Event Time Altitude Azimuth Distance (km) Brightness Sun altitude
Rises 01:56:52 0° 334° (NNW) 2,897 5.2 -14.4°
Reaches altitude 10° 01:58:58 10° 338° (NNW) 2,093 4.4 -14.9°
Maximum altitude 02:03:45 62° 59° (ENE) 872 2.0 -15.8°
Drops below altitude 10° 02:09:38 10° 139° (SE) 2,568 4.4 -17.0°
Sets 02:12:26 0° 143° (SE) 3,613 5.2 -17.6°
